Weather WX

World > North America > United States > Pennsylvania

Bentleyville, Pennsylvania Regional Weather

Lat: 40.12N, Lon: 80W
Wx Zone: PAZ029
Warning FLW WEATHER ALERT - (More Info. Click Here) Warning
Feedback

Bentleyville, PA Regional Weather

Expires:201906241900;;011946
ASUS41 KCTP 241810
RWRCTP

REGIONAL WEATHER ROUNDUP
NATIONAL WEATHER SERVICE STATE COLLEGE PA
200 PM EDT MON JUN 24 2019

Note: "fair" indicates few or no clouds below 12,000 feet with no 
significant weather and/or obstructions to visibility.

* = STATION THAT DOES NOT REPORT PRECIPITATION /E.G. RAIN...SNOW...ETC/
    THUNDER OR FOG.


PAZ002>004-007>009-013>016-020>023-029>032-241900-
WESTERN PENNSYLVANIA
  
CITY           SKY/WX    TMP DP  RH WIND       PRES   REMARKS
ERIE           PTSUNNY   85  65  51 SW12G21   29.75F                  
MEADVILLE      FAIR      81  65  58 S12G21    29.81S                  
FRANKLIN*      FAIR      80  67  64 S12       29.83F                  
NEW CASTLE     MOCLDY    82  69  64 VRB6      29.82F                  
BEAVER COUNTY  MOSUNNY   79  66  65 S12G17    29.83F                  
BUTLER*        PTSUNNY   82  67  60 W12G23    29.83F                  
PITTSBURGH INT CLOUDY    80  66  62 S15G21    29.83F                  
PITTSBURGH     FAIR      81  68  64 SW12      29.84F                  
INDIANA*       MOSUNNY   84  70  61 VRB5G14   29.88F                  
LATROBE        PTSUNNY   84  70  61 SW12G23   29.85F                  
WASHINGTON CO* CLOUDY    77  69  76 SW7       29.87F                  
$$


SKY/WX - Weather  TMP - Temperature  DP - Dew Point  RH - Relative Humidity
WIND - Wind Direction/Speed PRES - Barometric Pressure VSB - Visibility
WCI - Wind Chill Index E13G22 Wind - East Wind 13 mph/Gusts of 22 mph